Total_Precipitation_Accumulation
0.23 0.21 0.23 0.36 0.44 0.37 0.21 0.08 0.06 0.07 0.07 0.07 0.07 0.08 0.09 0.12 0.16 0.24 0.18 0.18 0.24 0.25 0.37 0.69 1.11 1.39 1.37 1.26 1.15 1.00 0.98 1.08 1.22 1.32 1.20 1.15 1.14 1.15 1.10 1.14 1.25 1.40 1.41 1.29 1.19 1.10 0.87 0.70 0.52
0.28 0.32 0.42 0.53 0.46 0.31 0.15 0.08 0.07 0.08 0.10 0.09 0.09 0.09 0.12 0.16 0.16 0.16 0.18 0.20 0.26 0.30 0.40 0.66 1.11 1.40 1.43 1.33 1.18 1.04 1.03 1.12 1.24 1.42 1.41 1.32 1.25 1.22 1.23 1.17 1.26 1.30 1.22 1.12 0.91 0.80 0.62 0.53 0.44
0.43 0.54 0.70 0.62 0.39 0.26 0.14 0.09 0.09 0.09 0.09 0.14 0.13 0.12 0.18 0.24 0.23 0.21 0.20 0.22 0.29 0.38 0.48 0.75 1.16 1.48 1.53 1.39 1.25 1.11 1.09 1.22 1.30 1.37 1.47 1.45 1.35 1.35 1.36 1.27 1.17 1.15 1.06 0.92 0.74 0.61 0.46 0.39 0.35
0.66 0.92 0.91 0.65 0.33 0.17 0.14 0.11 0.10 0.11 0.12 0.13 0.13 0.18 0.24 0.26 0.28 0.27 0.23 0.26 0.32 0.50 0.65 0.86 1.20 1.54 1.66 1.51 1.36 1.23 1.22 1.33 1.38 1.41 1.53 1.52 1.50 1.55 1.48 1.26 1.09 0.99 0.87 0.75 0.66 0.55 0.41 0.35 0.32
0.95 1.15 0.95 0.58 0.28 0.14 0.13 0.14 0.14 0.15 0.16 0.17 0.16 0.24 0.30 0.29 0.31 0.33 0.32 0.34 0.38 0.56 0.82 1.08 1.38 1.65 1.84 1.75 1.63 1.54 1.45 1.46 1.48 1.50 1.55 1.58 1.56 1.58 1.45 1.17 1.01 0.92 0.81 0.76 0.66 0.54 0.41 0.36 0.33
1.33 1.21 0.90 0.51 0.23 0.16 0.14 0.16 0.16 0.19 0.19 0.22 0.24 0.34 0.46 0.44 0.52 0.55 0.51 0.53 0.57 0.68 0.92 1.30 1.72 1.90 2.08 2.07 1.90 1.84 1.65 1.58 1.60 1.60 1.62 1.65 1.65 1.59 1.50 1.20 1.05 0.93 0.88 0.85 0.74 0.59 0.47 0.37 0.31
1.34 1.12 0.73 0.41 0.22 0.20 0.17 0.18 0.22 0.22 0.26 0.27 0.30 0.44 0.61 0.72 0.79 0.85 0.87 0.90 0.92 0.98 1.08 1.32 1.70 2.00 2.25 2.29 2.00 1.99 1.83 1.66 1.66 1.69 1.72 1.62 1.57 1.56 1.47 1.25 1.14 1.03 1.01 0.97 0.86 0.71 0.56 0.42 0.34
1.24 1.18 0.68 0.42 0.27 0.23 0.18 0.19 0.24 0.29 0.35 0.33 0.39 0.53 0.68 0.85 1.00 1.22 1.31 1.38 1.39 1.43 1.43 1.48 1.72 1.96 2.25 2.35 2.01 1.86 1.77 1.70 1.64 1.61 1.54 1.42 1.33 1.35 1.35 1.22 1.15 1.06 1.06 1.03 0.90 0.78 0.63 0.49 0.39
1.19 1.30 0.73 0.40 0.30 0.27 0.21 0.20 0.28 0.32 0.42 0.45 0.48 0.52 0.70 0.97 1.27 1.59 1.78 1.88 1.89 1.88 1.88 1.84 1.89 1.94 2.13 2.31 2.16 2.01 1.85 1.72 1.61 1.54 1.39 1.33 1.28 1.22 1.09 1.02 1.01 1.01 1.05 1.08 0.96 0.83 0.71 0.49 0.36
1.30 1.12 0.62 0.36 0.33 0.33 0.30 0.29 0.34 0.43 0.53 0.62 0.66 0.70 0.90 1.24 1.57 1.76 1.90 1.96 2.02 2.00 2.00 2.06 2.10 2.08 2.17 2.23 2.24 2.17 1.97 1.81 1.64 1.47 1.35 1.35 1.35 1.25 1.08 1.03 0.99 1.03 1.08 1.13 1.07 0.89 0.76 0.53 0.41
1.11 0.80 0.53 0.40 0.39 0.41 0.48 0.47 0.45 0.53 0.63 0.65 0.78 0.87 1.09 1.45 1.67 1.84 2.03 2.16 2.26 2.24 2.17 2.17 2.26 2.36 2.33 2.32 2.24 2.17 1.96 1.87 1.79 1.62 1.45 1.41 1.54 1.44 1.33 1.17 1.05 1.08 1.06 1.08 1.04 0.93 0.74 0.56 0.45
0.88 0.60 0.55 0.45 0.43 0.46 0.53 0.56 0.54 0.58 0.68 0.65 0.74 0.95 1.17 1.51 1.61 1.80 2.06 2.29 2.57 2.63 2.51 2.50 2.61 2.64 2.57 2.47 2.33 2.22 2.00 1.83 1.77 1.70 1.66 1.57 1.53 1.40 1.32 1.22 1.04 1.01 0.98 1.02 1.06 0.92 0.79 0.69 0.56
0.81 0.63 0.57 0.54 0.48 0.48 0.53 0.56 0.62 0.59 0.64 0.70 0.81 1.08 1.38 1.64 1.86 1.99 2.24 2.49 2.75 2.86 2.89 2.86 2.95 3.02 2.93 2.80 2.57 2.28 2.11 1.90 1.78 1.75 1.73 1.64 1.54 1.43 1.34 1.27 1.22 1.07 0.99 0.97 1.06 1.06 0.93 0.83 0.74
0.77 0.68 0.64 0.65 0.60 0.57 0.66 0.59 0.66 0.66 0.65 0.78 0.94 1.12 1.39 1.63 1.99 2.17 2.37 2.51 2.70 2.90 3.09 3.24 3.29 3.27 3.21 3.02 2.77 2.45 2.29 2.11 2.01 1.91 1.79 1.71 1.67 1.63 1.56 1.39 1.30 1.19 1.07 1.02 1.09 1.13 1.05 0.97 0.86
0.81 0.87 0.81 0.77 0.75 0.72 0.75 0.79 0.64 0.63 0.66 0.75 0.88 1.08 1.39 1.62 1.87 2.09 2.28 2.44 2.56 2.86 3.17 3.39 3.58 3.74 3.54 3.35 3.08 2.77 2.60 2.43 2.26 2.07 1.93 1.81 1.74 1.82 1.78 1.65 1.42 1.27 1.24 1.20 1.20 1.24 1.24 1.14 0.98
1.10 1.19 1.06 0.76 0.78 0.79 0.85 0.86 0.59 0.56 0.65 0.73 0.79 1.00 1.33 1.63 1.89 2.03 2.24 2.44 2.66 2.82 3.06 3.30 3.38 3.71 3.86 3.75 3.50 3.09 2.84 2.68 2.54 2.37 2.21 2.10 1.92 1.96 2.03 1.86 1.69 1.54 1.49 1.44 1.37 1.28 1.20 1.13 1.01
1.31 1.12 0.88 0.72 0.68 0.80 0.89 0.82 0.62 0.53 0.62 0.69 0.76 0.91 1.17 1.42 1.75 1.98 2.12 2.34 2.65 2.87 3.00 3.32 3.38 3.53 3.80 3.96 3.84 3.59 3.31 3.05 2.84 2.70 2.53 2.42 2.28 2.17 2.18 2.09 1.94 1.86 1.76 1.70 1.59 1.45 1.27 1.16 1.04
0.90 0.77 0.69 0.68 0.62 0.74 0.87 0.80 0.68 0.56 0.59 0.70 0.75 0.84 1.03 1.21 1.44 1.68 1.90 2.20 2.55 2.96 3.23 3.46 3.65 3.71 3.96 4.39 4.40 4.12 3.87 3.58 3.36 3.12 2.90 2.77 2.68 2.55 2.37 2.33 2.26 2.17 2.01 1.89 1.85 1.69 1.49 1.31 1.24
0.67 0.70 0.63 0.53 0.50 0.69 0.76 0.73 0.74 0.70 0.68 0.71 0.74 0.78 0.92 1.12 1.27 1.49 1.72 2.12 2.38 2.70 3.06 3.21 3.51 3.75 3.96 4.20 4.26 4.03 3.76 3.57 3.42 3.41 3.33 3.13 2.95 2.85 2.67 2.48 2.48 2.42 2.21 1.98 1.97 1.94 1.77 1.60 1.56
0.82 0.87 0.69 0.57 0.51 0.67 0.72 0.69 0.73 0.80 0.79 0.72 0.69 0.73 0.82 0.99 1.13 1.30 1.56 1.93 2.15 2.35 2.60 2.84 3.10 3.40 3.62 3.74 3.85 3.96 3.96 3.72 3.46 3.41 3.44 3.37 3.24 3.08 2.87 2.68 2.58 2.55 2.49 2.23 2.06 2.11 2.05 1.89 1.83
0.92 0.86 0.72 0.69 0.62 0.74 0.78 0.81 0.72 0.76 0.78 0.76 0.75 0.76 0.83 0.98 1.04 1.16 1.36 1.76 1.97 2.09 2.32 2.54 2.79 3.00 3.15 3.51 3.83 3.97 4.24 4.13 3.70 3.35 3.18 3.31 3.37 3.33 3.10 2.87 2.80 2.73 2.71 2.61 2.39 2.27 2.24 2.17 2.04
1.00 0.64 0.65 0.74 1.00 1.13 0.89 1.11 0.81 0.74 0.73 0.78 0.82 0.86 0.93 0.99 1.05 1.14 1.24 1.47 1.71 1.81 2.02 2.32 2.62 2.86 2.94 3.26 3.52 3.56 3.57 3.65 3.41 3.21 3.19 3.30 3.36 3.40 3.37 3.17 2.95 2.84 2.80 2.75 2.80 2.78 2.62 2.48 2.26
0.84 0.61 0.74 0.87 1.09 1.23 0.88 1.04 0.91 0.67 0.79 0.84 0.86 0.93 1.04 0.97 0.98 1.12 1.20 1.28 1.48 1.61 1.73 2.00 2.40 2.71 2.87 2.99 3.20 3.41 3.44 3.44 3.51 3.46 3.35 3.27 3.23 3.27 3.39 3.33 3.13 2.83 2.66 2.58 2.65 2.76 2.81 2.67 2.42
0.86 0.98 1.13 1.21 1.63 1.76 0.82 0.89 0.97 0.84 0.91 0.85 0.80 0.88 1.00 0.94 0.96 1.04 1.08 1.14 1.33 1.44 1.48 1.70 2.00 2.43 2.82 2.96 3.02 3.12 3.18 3.15 3.25 3.40 3.39 3.32 3.20 3.14 3.19 3.20 3.09 2.91 2.68 2.51 2.53 2.66 2.75 2.79 2.69
1.35 2.00 2.60 2.56 2.42 1.40 0.52 0.73 1.02 0.88 0.81 0.83 0.82 0.81 0.89 0.95 0.96 1.00 1.04 1.13 1.22 1.33 1.36 1.49 1.65 2.00 2.45 2.72 2.77 2.83 2.90 2.93 2.91 3.07 3.26 3.28 3.16 3.01 3.07 3.18 3.07 2.95 2.75 2.62 2.54 2.56 2.56 2.59 2.63
1.29 1.74 2.08 1.75 1.17 0.67 0.46 0.72 0.93 0.80 0.72 0.68 0.64 0.66 0.75 0.85 0.89 0.92 0.94 1.00 1.02 1.09 1.20 1.34 1.44 1.61 1.90 2.20 2.38 2.53 2.63 2.69 2.60 2.61 2.88 3.04 2.96 2.89 2.91 3.07 3.08 2.99 2.86 2.75 2.62 2.53 2.45 2.43 2.42
1.28 1.39 1.25 1.58 1.12 0.77 0.61 0.65 0.69 0.54 0.54 0.56 0.54 0.55 0.65 0.71 0.76 0.77 0.78 0.82 0.84 0.88 0.99 1.13 1.20 1.29 1.48 1.76 2.02 2.23 2.34 2.47 2.52 2.43 2.52 2.80 2.85 2.72 2.70 2.80 2.87 2.85 2.80 2.77 2.69 2.57 2.39 2.30 2.26
1.17 1.17 1.45 2.23 1.87 1.10 0.64 0.57 0.71 0.60 0.57 0.60 0.58 0.55 0.58 0.60 0.66 0.69 0.71 0.75 0.79 0.83 0.79 0.84 1.00 1.16 1.29 1.42 1.72 1.95 2.10 2.22 2.33 2.40 2.39 2.47 2.57 2.58 2.51 2.52 2.59 2.65 2.62 2.60 2.64 2.54 2.37 2.31 2.19
1.19 1.47 1.69 1.84 1.58 1.38 0.94 0.79 0.75 0.65 0.62 0.63 0.62 0.58 0.57 0.59 0.65 0.67 0.67 0.70 0.79 0.83 0.77 0.73 0.85 1.01 1.14 1.21 1.42 1.62 1.79 1.97 2.09 2.19 2.23 2.24 2.30 2.39 2.45 2.41 2.44 2.53 2.57 2.52 2.53 2.52 2.42 2.30 2.16
1.00 1.20 1.50 2.09 1.66 1.26 1.08 0.89 0.66 0.58 0.56 0.60 0.63 0.62 0.61 0.64 0.70 0.68 0.66 0.68 0.76 0.85 0.84 0.79 0.82 0.89 1.02 1.10 1.22 1.45 1.56 1.71 1.88 1.99 2.03 2.03 2.07 2.12 2.18 2.23 2.28 2.30 2.34 2.38 2.39 2.38 2.36 2.32 2.20